Regional Weather Roundup
Issued by NWS

Home | Current Version | Previous Version | Graphics & Text | Print | Product List | Glossary On
Versions: 1 2 3 4 5 6 7 8 9 10 11 12 13 14 15 16 17 18 19 20 21 22 23 24 25 26 27 28 29 30 31 32 33 34 35 36 37 38 39 40 41 42 43 44 45 46 47 48 49 50
000
ASUS43 KMKX 240400
RWRWI

WISCONSIN REGIONAL WEATHER ROUNDUP
NATIONAL WEATHER SERVICE MILWAUKEE/SULLIVAN WI
1000 PM CST SUN NOV 23 2014

NOTE: "FAIR" INDICATES FEW OR NO CLOUDS BELOW 12,000 FEET WITH NO
SIGNIFICANT WEATHER AND/OR OBSTRUCTIONS TO VISIBILITY.

WIZ001-002-006>008-014>016-023>028-240500-
NORTHWEST WISCONSIN

CITY           SKY/WX    TMP DP  RH WIND       PRES   REMARKS
SUPERIOR ARPT  LGT RAIN  36  35  99 CALM      29.33F
ASHLAND        FOG       37  37 100 CALM      29.30F VSB 1
HAYWARD        LGT RAIN  38  36  92 N6        29.27F FOG     WCI  33
SIREN          LGT RAIN  36  36  99 NW7       29.32F WCI  31
CUMBERLAND     CLOUDY    36  34  93 N13       29.28F FOG     WCI  27
RICE LAKE      HVY RAIN  37  37  99 NW3       29.29F
CHETEK         DRIZZLE   37  37 100 W7        29.27S WCI  31
LADYSMITH      RAIN      41  40  97 N3        29.25F VSB 3/4
EAU CLAIRE     LGT RAIN  40  38  93 NW8       29.25S FOG     WCI  34
MENOMONIE      DRIZZLE   38  38 100 W9        29.28F WCI  32
NEW RICHMOND   DRIZZLE   36  36 100 NW8       29.32F WCI  30
OSCEOLA        LGT RAIN  37  37 100 NW6       29.36S WCI  32
$$

WIZ003>005-009-010-017-018-240500-
NORTH CENTRAL WISCONSIN

CITY           SKY/WX    TMP DP  RH WIND       PRES   REMARKS
MANITOWISH WTR FOG       35  35 100 CALM      29.25F VSB 1/4
ARBOR VITAE    FOG       42  40  96 SE3       29.25F VSB 1/2
WOODRUFF       FOG       42  40  96 SE3       29.25F VSB 1/2
RHINELANDER    FOG       38  38 100 E3        29.24F VSB 1/4
EAGLE RIVER    LGT RAIN  40  40 100 CALM      29.25F VSB 1/4
LAND O LAKES   LGT RAIN  40  40 100 E3        29.26F VSB 1/2
PHILLIPS       FOG       39  39 100 CALM      29.23F VSB 1/4
TOMAHAWK       FOG       40  40  98 CALM      29.25F VSB 1/4
MEDFORD        LGT RAIN  42  42 100 E5        29.23F VSB 1/4
MERRILL        RAIN      41  41 100 CALM      29.25F VSB 1/4
$$

WIZ029-030-035-036-043>047-240500-
CENTRAL WISCONSIN

CITY           SKY/WX    TMP DP  RH WIND       PRES   REMARKS
WAUSAU         LGT RAIN  42  42 100 E3        29.22F VSB 1/4
MOSINEE        RAIN      43  43 100 E3        29.23F VSB 1/4
MARSHFIELD     LGT RAIN  44  43  96 E3        29.21F VSB 1/4
STEVENS POINT  FOG       41  41 100 E3        29.24F VSB 1/4
WAUPACA        DRZL/FOG  46  44  96 CALM      29.25F VSB 1/4
WAUTOMA        LGT RAIN  45  45 100 N6        29.23F VSB 1/4
WISC RAPIDS    LGT RAIN  44  43  96 E5        29.23F
CAMP DOUGLAS   FOG       46  46 100 CALM      29.22F VSB 1/2
$$

WIZ011>013-019>022-031-037>040-048>050-240500-
NORTHEAST WISCONSIN

CITY           SKY/WX    TMP DP  RH WIND       PRES   REMARKS
ANTIGO         DRZL/FOG  39  39 100 E6        29.25F VSB 1/2 WCI  35
SHAWANO        DRZL/FOG  44  42  95 E5        29.27F VSB 1/4
OCONTO         CLOUDY    43  43 100 CALM      29.26F
STURGEON BAY   CLOUDY    46  45  93 SE9       29.25F
GREEN BAY      LGT RAIN  45  44  97 CALM      29.23F FOG
MANITOWOC      NOT AVBL
APPLETON       LGT RAIN  43  43 100 SE5       29.23F VSB 3/4
CLINTONVILLE   RAIN      43  43 100 NE5       29.25F
OSHKOSH        LGT RAIN  45  44  97 SE5       29.21F FOG
$$

WIZ032>034-041-042-053>061-240500-
SOUTHWEST WISCONSIN

CITY           SKY/WX    TMP DP  RH WIND       PRES   REMARKS
LA CROSSE      LGT RAIN  43  42  97 NW14      29.22F FOG
SPARTA         LGT RAIN  45  45 100 CALM      29.23F VSB 1/2
VIROQUA        CLOUDY    44  44 100 CALM      29.21F VSB 1/4
BOSCOBEL       FOG       47  45  93 CALM      29.20F VSB 1/2
PRAIRIE DU CHI FOG       44  43  97 CALM      29.21F VSB 1/2
PLATTEVILLE    CLOUDY    46  45  97 E5        29.20F VSB 1/2
$$

WIZ056-057-062-063-064-067-068-240500-
SOUTH CENTRAL WISCONSIN

CITY           SKY/WX    TMP DP  RH WIND       PRES   REMARKS
REEDSBURG      DRZL/FOG  46  46 100 CALM      29.20F VSB 3/4
BARABOO/DELLS  DRZL/FOG  46  44  95 CALM      29.20F VSB 3/4
LONE ROCK      FOG       50  46  86 CALM      29.21F VSB 1/2
MINERAL POINT  LGT RAIN  46  46 100 CALM      29.19F VSB 3/4
MADISON        LGT RAIN  47  46  97 CALM      29.19F FOG
MIDDLETON      CLOUDY    48  48 100 CALM      29.20F VSB 3/4
WATERTOWN      LGT RAIN  46  46 100 E5        29.20F
MONROE         DRZL/FOG  46  46 100 CALM      29.19F VSB 1/4
JANESVILLE     LGT RAIN  46  45  93 E5        29.19F
$$

WIZ051-052-058>065-066-070>072-240500-
SOUTHEAST WISCONSIN

CITY           SKY/WX    TMP DP  RH WIND       PRES   REMARKS
MILWAUKEE      LGT RAIN  46  45  96 SE3       29.18F VSB 1
WAUKESHA       LGT RAIN  45  45 100 CALM      29.21F
MILWAUKEE/TIMM HVY RAIN  45  43  93 E3        29.21F
RACINE         RAIN      46  45  96 CALM      29.19F VSB 1
BURLINGTON     RAIN      45  45 100 CALM      29.19F
KENOSHA        LGT RAIN  47  46  97 E3        29.17F FOG
FOND DU LAC    LGT RAIN  46  44  93 SE6       29.20F FOG
SHEBOYGAN      LGT RAIN  44  42  93 CALM      29.21F VSB 1/2
WEST BEND      LGT RAIN  43  43 100 CALM      29.21F
JUNEAU         RAIN      45  45  99 E3        29.22F VSB 3/4
$$

LSZ147-162-240500-
LAKE SUPERIOR

STATION/POSITION TIME  TEMP    WIND        PRES    WAVE
                       AIR SEA DIR/SP/G            HT/PER
                 (UTC) (F)     (DEG/KT/KT) (MB)    (FT/S)
DEVILS ISLAND    0300   39     320/  9/ 10  993.4F
PORT WING        0300   36     300/  7/  9  993.6F
SAXON HARBOR     0300   39        CALM      992.6
$$

LMZ867-665-643>646-240500-
LAKE MICHIGAN

STATION/POSITION TIME  TEMP    WIND        PRES    WAVE
                       AIR SEA DIR/SP/G            HT/PER
                 (UTC) (F)     (DEG/KT/KT) (MB)    (FT/S)
CHAMBERS ISLAND  0300   45     140/  3/  7  993.2F
N MID LAKE BUOY  0250   45 42  130/ 10/ 12  993.9F   3/ 6
NORTHPORT PIER   0300   43     150/  7/ 10  993.2F
SISTER BAY       0243          160/ 10/ 14   N/A
KEWAUNEE LAKESHO 0300   41     180/  2/  3  991.4F
SHEBOYGAN LAKESH 0300   45 40  120/ 10/ 11  991.4F
PORT WASHINGTON  0320   45      CALM  /  5  991.2F
ATWATER BUOY     0300   46     130/  4/  6  993.5F
MILWAUKEE LAKESH 0300   44     250/  2/  3   N/A
S MID LAKE BUOY  0250   46 42  110/ 12/ 12  990.4F   1/ 3
KENOSHA   LAKESH 0300   45     100/  8/  9  990.2F
$$

TC  - TEMPERATURE IN CELSIUS
VSB - VISIBILITY IN STATUTE MILES
WCI - WIND CHILL INDEX
HX  - HEAT INDEX



USA.gov is the U.S. government's official web portal to all federal, state and local government web resources and services.